Zurück zum Katalog

NOAA 16 DEB

AktivSSO
NORAD 42421·DEBRIS·🇺🇸 United States

Gestartet Sep 21, 2000 von Vandenberg Space Force Base

Loading…

Nächste Überflüge (nächste 24 Stunden)

TLE

AlterndSource: Space-Track

Epoche: Sep 5, 2026, 03:58 UTC

1 42421U 00055TR  26248.16538815  .00001556  00000-0  89565-3 0  9995
2 42421  98.8924 224.7277 0076396 229.4555 129.9946 14.09241140501629

Verfolge NOAA 16 DEB in Echtzeit mit AllMySat

Download on the App Store